Temp
55 54 52 50 49 49 50 49 49 49 49 49 49 49 49 49 48 49 49 50 49 49 50 51 52 52 51 51 50 50 49 49 48 47 47 47 46 45 45 44 44 43 41 40 39 39 38 37 38 38 38 36 35 35 34 34 33 33 33 34 34 33 32 32 33 33 33 33 34
56 54 51 49 48 49 49 49 49 50 51 52 52 51 51 52 51 52 52 53 52 51 51 51 52 52 51 50 50 50 49 49 48 47 47 46 46 46 45 44 43 43 42 41 40 39 38 37 38 38 38 36 35 34 34 33 33 33 33 33 33 33 33 33 33 33 33 33 33
55 53 51 50 49 49 50 50 50 52 54 56 56 55 55 54 54 54 54 55 55 54 54 53 53 52 51 51 51 50 49 49 48 47 46 46 45 45 44 44 42 41 41 40 40 39 38 36 37 38 38 37 35 35 35 33 32 33 33 33 33 34 34 36 34 33 33 34 33
54 52 51 50 50 50 50 50 52 54 56 58 57 56 56 55 55 55 55 55 55 55 54 53 53 52 51 51 50 50 49 48 48 47 46 45 45 44 43 43 42 41 40 40 39 38 36 36 37 37 36 34 34 34 34 34 32 32 33 33 33 34 35 36 35 35 36 35 34
54 52 51 50 50 50 51 52 55 56 57 58 58 57 56 56 56 56 55 54 54 54 54 53 53 52 52 51 50 49 48 48 47 46 46 44 44 43 43 42 41 40 39 39 38 37 36 35 37 36 35 33 35 34 33 31 31 32 33 34 34 35 35 36 36 36 36 36 34
54 53 52 52 52 52 53 55 56 57 58 58 57 56 56 56 56 55 54 54 53 53 53 52 52 51 50 50 49 48 47 47 46 45 45 44 43 42 42 41 41 40 39 38 37 37 36 36 37 36 35 35 34 33 31 31 32 32 33 34 34 35 35 35 35 35 35 33 33
56 55 54 54 54 54 56 57 57 58 58 58 56 55 55 55 54 54 53 53 53 52 52 51 51 50 50 49 48 47 46 45 45 44 44 44 43 42 42 41 40 39 38 37 36 36 35 36 37 37 36 35 35 33 31 31 32 33 33 34 34 34 34 33 34 34 33 32 32
56 56 56 56 56 57 58 58 58 57 57 57 56 54 54 54 53 53 53 53 52 52 52 51 50 50 50 49 48 47 46 45 44 44 43 43 42 41 41 40 39 38 37 36 36 35 35 35 36 36 35 35 36 34 31 31 32 32 33 33 33 33 32 32 31 32 32 32 32
57 57 57 57 57 58 58 58 57 57 56 56 55 54 53 53 53 52 52 52 52 52 51 51 50 50 49 49 48 48 47 46 45 43 42 42 42 41 40 39 39 37 36 35 35 35 35 35 35 34 34 35 35 33 31 31 32 32 32 31 32 31 31 30 30 30 30 31 32
58 58 58 58 57 57 57 57 56 56 55 55 54 53 52 51 52 52 52 52 52 51 51 50 50 49 49 48 48 47 47 46 45 44 43 42 42 41 40 39 39 37 36 34 34 34 34 34 33 32 32 31 31 31 31 32 32 32 32 31 31 30 30 29 29 29 29 30 31
58 58 58 57 57 57 57 56 56 56 55 54 53 53 52 51 51 52 52 52 51 51 50 50 50 49 49 48 48 47 46 46 45 44 43 42 41 41 40 39 39 38 36 34 33 33 33 33 32 32 31 30 30 31 32 32 32 31 31 29 29 29 29 29 28 28 28 29 30
58 58 58 57 57 57 57 56 56 56 55 54 53 53 52 52 52 52 52 51 50 50 50 50 50 49 49 48 47 46 45 45 44 43 42 41 40 40 39 39 38 37 36 34 33 33 33 32 32 32 31 30 29 30 31 31 31 31 30 29 29 29 29 28 28 28 28 28 29
58 58 57 57 57 57 57 56 56 56 55 54 54 53 53 52 52 52 51 50 50 50 50 50 50 49 49 48 47 46 45 44 43 42 42 41 40 39 38 38 37 36 35 34 33 33 33 32 32 31 31 30 29 30 30 31 30 30 29 29 28 28 28 28 28 28 28 28 28
57 57 57 57 57 57 57 56 56 56 55 54 54 54 53 53 52 52 51 50 50 50 50 50 49 49 48 47 46 45 44 43 42 42 41 40 39 38 38 37 36 36 35 34 33 33 32 32 31 31 31 31 30 29 30 30 29 29 29 28 28 28 28 28 27 28 28 28 28
57 57 57 56 57 57 57 56 56 55 54 54 54 54 54 53 52 52 51 51 51 50 50 50 49 48 47 46 45 44 43 43 42 41 40 39 38 38 37 37 36 35 34 34 33 33 32 32 31 31 31 31 30 30 29 29 29 29 29 29 28 28 27 27 27 27 27 27 27
57 57 57 56 56 57 57 56 56 55 54 53 54 54 53 53 52 51 50 50 50 50 49 49 48 47 46 45 45 44 43 42 42 41 40 39 38 37 37 36 35 35 34 34 33 32 32 32 31 31 31 31 30 29 29 30 30 29 29 29 28 28 27 27 27 27 27 27 26
56 56 56 56 56 56 56 56 55 54 53 53 53 53 52 52 51 50 50 50 50 49 49 48 48 47 45 44 44 43 43 42 41 41 40 39 38 37 36 36 35 34 34 33 33 32 31 31 31 31 31 30 30 30 29 30 30 29 29 29 28 28 27 27 26 26 26 26 25
56 56 56 56 56 56 56 55 54 54 53 53 52 52 51 51 50 50 50 50 49 49 48 47 47 46 45 44 43 43 43 42 41 40 40 39 38 37 36 35 34 34 33 33 33 32 31 31 31 31 30 30 30 30 30 30 30 29 29 28 28 27 27 26 26 25 25 25 25
56 56 56 55 55 55 55 54 54 53 53 53 52 52 51 51 51 50 50 49 49 48 48 47 46 46 45 44 43 42 42 41 40 39 39 38 38 37 36 35 33 33 33 33 32 32 32 32 32 31 31 30 30 30 30 29 29 29 28 28 27 27 26 26 25 25 25 25 25
55 55 55 55 55 55 54 54 53 53 53 53 52 52 51 51 51 50 50 49 48 48 47 47 46 45 44 44 42 41 40 40 40 39 38 37 37 37 36 34 33 32 32 32 32 32 31 32 32 32 31 31 30 30 29 28 28 27 27 27 26 26 25 25 24 24 24 24 24
55 55 55 55 55 55 54 53 53 53 53 53 52 52 51 51 50 50 49 49 48 47 47 46 45 45 44 43 42 41 40 39 39 38 38 37 37 36 35 34 33 32 31 31 31 31 31 31 31 31 31 31 30 29 29 28 27 26 25 25 25 25 24 24 24 24 23 24 24
55 55 55 55 55 54 54 53 53 53 53 52 52 51 51 50 50 49 49 48 47 47 46 45 44 44 44 43 42 40 39 38 38 38 37 37 36 35 34 34 33 31 30 29 29 30 30 30 31 31 31 30 29 29 28 27 25 24 24 23 23 23 23 23 23 23 23 23 23
55 55 55 55 54 53 52 52 52 52 52 52 51 51 50 50 49 49 48 47 47 46 45 44 44 44 44 43 42 40 39 38 37 36 36 36 35 34 33 33 32 31 30 29 29 29 30 30 29 29 29 29 27 27 27 27 25 24 23 22 22 22 22 22 22 22 22 23 23
55 55 54 54 53 52 51 51 51 51 51 51 50 50 50 49 48 48 47 46 46 45 45 45 44 44 43 42 41 40 39 38 37 36 35 35 34 33 32 32 32 31 30 30 31 31 31 30 28 27 27 26 26 26 26 26 24 23 23 22 22 21 21 21 21 21 22 22 23
54 54 54 53 51 51 51 51 51 51 51 50 50 50 49 48 48 47 46 45 45 45 44 44 44 43 42 41 41 40 39 38 37 36 35 34 33 33 32 32 32 31 32 33 35 34 33 31 29 27 25 25 25 25 25 24 24 24 23 23 22 21 20 20 20 21 22 22 22
54 53 52 52 51 50 50 50 50 50 50 50 49 49 48 48 47 46 45 45 44 44 43 43 43 42 42 41 40 39 39 38 37 36 35 34 33 32 32 32 32 32 33 35 36 35 34 33 31 28 25 24 24 24 24 23 24 24 23 23 22 21 21 20 20 20 21 22 21
53 52 52 51 50 50 50 50 50 50 49 49 49 48 48 47 47 46 45 44 44 43 43 43 43 42 41 41 39 38 38 37 37 36 35 34 33 32 31 31 31 32 34 36 36 35 34 34 32 30 27 24 24 23 23 22 23 23 22 21 21 20 20 20 20 20 20 21 20
52 52 51 50 49 49 50 50 49 49 49 48 48 48 47 47 46 45 45 44 43 43 43 43 42 41 41 40 39 38 37 36 36 35 34 34 33 32 31 30 31 33 35 37 36 36 35 34 33 32 29 25 24 23 23 22 21 21 20 20 19 19 19 19 20 20 20 19 19
52 51 50 49 49 49 49 49 49 49 48 48 48 47 47 46 45 45 44 44 43 43 42 42 41 40 40 39 38 37 36 36 35 35 34 33 32 31 30 30 31 33 35 37 36 36 35 35 34 33 31 28 24 22 21 20 20 19 19 18 18 18 18 18 18 18 19 18 18
52 51 50 49 49 49 49 49 49 49 48 48 47 47 46 45 45 44 44 43 43 42 41 41 40 39 39 38 38 37 36 35 34 34 33 32 31 30 30 30 31 33 35 37 36 36 35 35 34 33 31 29 25 21 20 19 18 18 18 18 17 17 17 17 17 17 17 17 18
52 51 49 49 48 48 48 49 49 48 48 47 47 46 45 45 44 44 44 43 42 41 41 40 39 38 38 37 36 36 35 34 34 33 33 32 30 29 29 29 30 33 35 36 36 35 35 34 34 33 31 29 25 21 19 18 18 18 17 17 17 17 17 17 17 17 17 17 17
51 50 49 48 46 46 47 49 48 48 47 46 46 45 45 44 44 43 43 42 42 41 40 39 38 37 36 35 35 34 34 33 33 33 32 31 30 29 29 29 30 31 34 36 35 35 34 34 33 33 31 29 25 21 19 18 17 17 17 17 17 17 17 17 17 17 17 17 17
51 50 49 48 46 46 47 48 47 47 46 46 45 45 44 44 43 43 43 42 41 40 39 38 37 37 36 35 34 34 33 33 32 32 31 30 29 29 28 28 29 32 34 35 35 34 34 34 33 32 31 29 24 20 18 17 17 17 16 16 16 17 17 17 16 16 16 16 16
46 48 49 47 46 46 45 44 43 42 42 42 42 43 43 43 42 42 42 41 40 39 39 38 38 37 36 35 34 33 33 32 32 31 30 30 29 28 28 28 29 32 35 35 34 34 34 33 33 32 30 27 23 20 18 17 17 16 16 16 16 16 16 16 16 16 16 16 16
43 46 48 47 46 45 43 41 40 39 38 39 39 40 41 42 42 41 41 40 39 39 38 37 37 36 35 34 34 33 32 32 31 30 29 29 29 28 27 27 29 32 34 34 34 34 33 33 32 31 29 25 21 19 17 17 16 16 16 16 16 16 16 16 16 16 16 16 16
42 42 42 43 44 44 42 40 39 38 38 37 37 38 39 40 41 41 41 40 39 38 37 36 36 35 34 33 32 32 32 31 30 29 29 28 28 27 27 26 28 31 34 34 34 33 33 33 32 30 27 22 19 17 16 16 16 15 15 15 15 15 15 16 16 16 16 16 16
41 40 39 40 43 43 41 40 39 38 38 37 37 37 38 39 40 40 40 39 38 37 36 36 35 35 34 33 32 31 31 31 30 29 28 28 28 27 27 26 27 30 32 33 33 33 33 32 31 29 25 20 17 16 15 15 14 14 14 14 13 14 14 14 15 15 16 16 17
41 40 40 41 43 42 41 41 39 37 37 38 39 39 40 40 40 40 39 39 38 37 36 36 35 34 34 33 32 31 31 31 30 29 28 27 27 27 27 26 26 28 31 33 33 33 33 32 31 28 24 18 16 15 15 14 13 13 12 12 12 12 12 13 13 14 14 15 20
44 44 43 43 42 41 41 41 39 37 37 39 40 40 40 40 40 40 39 39 38 37 36 35 35 34 33 32 31 30 29 30 29 29 28 27 27 27 27 26 26 27 30 33 33 33 32 32 31 28 25 19 16 15 14 13 12 11 11 11 11 11 11 11 12 12 13 14 22
46 46 45 44 42 42 41 41 39 38 39 40 40 40 40 40 40 40 39 38 37 37 36 35 34 33 32 32 31 30 29 29 28 28 28 27 28 28 28 25 25 27 29 32 33 33 32 31 30 28 24 18 15 14 14 13 12 11 10 10 10 10 10 10 10 11 12 12 17
47 47 46 44 43 43 42 41 40 40 41 41 41 41 40 40 39 38 38 37 36 36 36 35 33 33 32 32 31 29 28 27 27 27 27 27 28 28 28 25 25 26 28 31 32 32 32 31 30 28 24 18 15 13 13 13 12 11 10 9 9 9 10 9 9 10 10 11 11
MSLP
1009.48 1010.20 1010.80 1011.28 1011.68 1012.04 1012.36 1012.60 1012.84 1013.12 1013.40 1013.80 1014.32 1014.88 1015.36 1015.68 1015.68 1015.76 1015.84 1015.96 1016.12 1016.40 1016.72 1017.00 1017.12 1017.20 1017.24 1017.16 1017.24 1017.36 1017.48 1017.60 1017.72 1017.84 1018.00 1018.16 1018.28 1018.44 1018.60 1018.68 1018.76 1018.84 1018.96 1019.04 1019.08 1019.16 1019.28 1019.36 1019.52 1019.64 1019.84 1020.00 1020.20 1020.36 1020.44 1020.56 1020.60 1020.68 1020.80 1020.84 1020.96 1021.04 1021.12 1021.16 1021.20 1021.20 1021.20 1021.20 1021.16
1009.28 1010.08 1010.76 1011.36 1011.84 1012.16 1012.52 1012.92 1013.16 1013.36 1013.56 1013.84 1014.28 1014.68 1015.08 1015.28 1015.36 1015.48 1015.60 1015.68 1015.92 1016.28 1016.68 1017.04 1017.12 1017.16 1017.16 1017.12 1017.16 1017.28 1017.40 1017.60 1017.80 1017.96 1018.12 1018.28 1018.40 1018.52 1018.60 1018.68 1018.72 1018.76 1018.84 1018.88 1019.00 1019.12 1019.28 1019.40 1019.56 1019.72 1019.92 1020.08 1020.24 1020.40 1020.52 1020.56 1020.68 1020.72 1020.84 1020.92 1021.00 1021.04 1021.08 1021.12 1021.12 1021.12 1021.12 1021.12 1021.12
1009.24 1010.04 1010.72 1011.28 1011.76 1012.16 1012.56 1013.00 1013.28 1013.40 1013.52 1013.68 1014.08 1014.44 1014.68 1014.88 1015.08 1015.24 1015.40 1015.56 1015.76 1016.08 1016.40 1016.72 1016.88 1016.92 1016.96 1017.00 1017.00 1017.12 1017.28 1017.52 1017.72 1018.00 1018.20 1018.36 1018.48 1018.56 1018.60 1018.64 1018.68 1018.68 1018.72 1018.84 1019.00 1019.12 1019.28 1019.40 1019.60 1019.76 1019.96 1020.12 1020.28 1020.40 1020.56 1020.64 1020.68 1020.76 1020.88 1021.00 1021.00 1021.00 1021.00 1021.00 1021.04 1021.08 1021.08 1021.08 1021.12
1009.24 1009.96 1010.56 1011.00 1011.48 1012.00 1012.44 1012.88 1013.16 1013.28 1013.32 1013.44 1013.80 1014.12 1014.36 1014.56 1014.84 1015.12 1015.28 1015.44 1015.68 1015.84 1016.12 1016.36 1016.56 1016.68 1016.68 1016.76 1016.88 1017.04 1017.24 1017.48 1017.72 1018.00 1018.24 1018.40 1018.48 1018.52 1018.56 1018.56 1018.56 1018.60 1018.68 1018.84 1019.00 1019.16 1019.32 1019.44 1019.60 1019.76 1019.96 1020.12 1020.28 1020.44 1020.56 1020.68 1020.72 1020.80 1020.84 1020.96 1020.92 1020.96 1021.00 1020.96 1020.96 1021.00 1021.00 1021.04 1021.08
1009.24 1009.84 1010.28 1010.68 1011.12 1011.60 1012.16 1012.64 1012.92 1013.00 1013.04 1013.16 1013.44 1013.76 1014.08 1014.40 1014.68 1014.92 1015.12 1015.32 1015.52 1015.68 1015.88 1016.08 1016.28 1016.40 1016.56 1016.64 1016.80 1017.00 1017.24 1017.52 1017.80 1018.00 1018.24 1018.40 1018.44 1018.48 1018.44 1018.44 1018.52 1018.60 1018.72 1018.88 1019.04 1019.24 1019.40 1019.56 1019.68 1019.84 1020.00 1020.12 1020.28 1020.40 1020.56 1020.64 1020.68 1020.76 1020.80 1020.84 1020.84 1020.84 1020.84 1020.92 1020.92 1020.92 1020.96 1021.04 1021.04
1009.12 1009.68 1010.12 1010.56 1010.92 1011.40 1011.92 1012.28 1012.48 1012.56 1012.68 1012.92 1013.20 1013.56 1013.84 1014.08 1014.36 1014.60 1014.84 1015.12 1015.36 1015.56 1015.76 1015.96 1016.08 1016.28 1016.44 1016.60 1016.76 1017.00 1017.32 1017.60 1017.84 1018.00 1018.16 1018.32 1018.40 1018.40 1018.40 1018.40 1018.48 1018.64 1018.80 1018.96 1019.08 1019.24 1019.40 1019.56 1019.68 1019.84 1020.00 1020.12 1020.28 1020.40 1020.56 1020.60 1020.64 1020.68 1020.76 1020.84 1020.80 1020.80 1020.84 1020.92 1020.92 1020.92 1020.96 1021.08 1021.12
1008.80 1009.40 1009.96 1010.40 1010.80 1011.20 1011.60 1011.88 1012.04 1012.20 1012.40 1012.72 1013.04 1013.28 1013.56 1013.76 1014.00 1014.32 1014.60 1014.92 1015.28 1015.56 1015.76 1015.96 1016.08 1016.20 1016.40 1016.60 1016.84 1017.12 1017.40 1017.68 1017.84 1018.00 1018.12 1018.24 1018.28 1018.32 1018.36 1018.44 1018.56 1018.68 1018.84 1019.00 1019.12 1019.28 1019.40 1019.56 1019.68 1019.84 1020.04 1020.12 1020.28 1020.40 1020.52 1020.52 1020.56 1020.64 1020.76 1020.84 1020.80 1020.80 1020.84 1020.96 1020.96 1020.96 1021.04 1021.16 1021.20
1008.56 1009.12 1009.60 1010.12 1010.52 1010.84 1011.16 1011.40 1011.68 1011.92 1012.24 1012.56 1012.80 1013.04 1013.28 1013.52 1013.84 1014.12 1014.48 1014.80 1015.16 1015.40 1015.68 1015.84 1016.04 1016.16 1016.32 1016.56 1016.84 1017.16 1017.44 1017.68 1017.84 1018.00 1018.08 1018.12 1018.28 1018.28 1018.32 1018.44 1018.60 1018.72 1018.84 1019.00 1019.12 1019.28 1019.40 1019.56 1019.68 1019.84 1020.04 1020.12 1020.24 1020.36 1020.40 1020.40 1020.48 1020.60 1020.76 1020.88 1020.84 1020.88 1020.92 1021.00 1021.00 1021.04 1021.12 1021.20 1021.28
1008.44 1008.92 1009.32 1009.76 1010.12 1010.44 1010.76 1011.04 1011.32 1011.60 1011.96 1012.28 1012.56 1012.84 1013.12 1013.36 1013.68 1014.04 1014.40 1014.68 1015.00 1015.28 1015.52 1015.76 1016.00 1016.12 1016.36 1016.56 1016.84 1017.16 1017.40 1017.60 1017.80 1017.96 1018.04 1018.12 1018.16 1018.28 1018.40 1018.52 1018.64 1018.80 1018.92 1019.00 1019.12 1019.28 1019.44 1019.64 1019.76 1019.92 1020.04 1020.12 1020.24 1020.32 1020.36 1020.36 1020.44 1020.64 1020.84 1020.96 1021.00 1021.00 1021.00 1021.04 1021.12 1021.12 1021.20 1021.28 1021.36
1008.36 1008.76 1009.12 1009.52 1009.88 1010.20 1010.52 1010.84 1011.16 1011.44 1011.76 1012.12 1012.44 1012.72 1013.00 1013.28 1013.64 1013.96 1014.24 1014.56 1014.84 1015.12 1015.40 1015.68 1015.92 1016.12 1016.36 1016.64 1016.88 1017.12 1017.36 1017.56 1017.68 1017.84 1017.96 1018.00 1018.12 1018.28 1018.40 1018.52 1018.60 1018.76 1018.92 1019.08 1019.20 1019.32 1019.48 1019.68 1019.84 1020.00 1020.08 1020.12 1020.20 1020.28 1020.36 1020.40 1020.52 1020.72 1020.88 1021.00 1021.08 1021.12 1021.12 1021.16 1021.24 1021.28 1021.32 1021.40 1021.48
1008.28 1008.56 1008.96 1009.32 1009.72 1010.08 1010.40 1010.80 1011.12 1011.40 1011.68 1012.08 1012.40 1012.68 1013.00 1013.28 1013.56 1013.84 1014.12 1014.40 1014.76 1015.08 1015.32 1015.56 1015.80 1016.04 1016.32 1016.64 1016.88 1017.12 1017.28 1017.44 1017.60 1017.72 1017.84 1017.96 1018.12 1018.24 1018.32 1018.44 1018.56 1018.72 1018.92 1019.12 1019.24 1019.36 1019.48 1019.68 1019.92 1020.04 1020.12 1020.16 1020.20 1020.28 1020.40 1020.44 1020.60 1020.80 1021.00 1021.12 1021.20 1021.24 1021.28 1021.36 1021.36 1021.40 1021.48 1021.56 1021.60
1008.24 1008.48 1008.84 1009.16 1009.56 1009.92 1010.28 1010.68 1011.00 1011.32 1011.64 1012.00 1012.40 1012.68 1013.00 1013.24 1013.48 1013.72 1014.00 1014.36 1014.68 1015.00 1015.24 1015.40 1015.68 1015.96 1016.24 1016.56 1016.84 1017.08 1017.28 1017.40 1017.56 1017.68 1017.80 1017.92 1018.08 1018.16 1018.28 1018.44 1018.56 1018.72 1018.92 1019.12 1019.24 1019.36 1019.56 1019.68 1019.88 1020.04 1020.16 1020.24 1020.28 1020.36 1020.44 1020.56 1020.72 1020.92 1021.08 1021.20 1021.28 1021.32 1021.44 1021.52 1021.56 1021.56 1021.60 1021.64 1021.68
1008.24 1008.48 1008.80 1009.08 1009.36 1009.68 1010.04 1010.40 1010.80 1011.12 1011.52 1011.88 1012.28 1012.60 1012.92 1013.16 1013.40 1013.64 1013.96 1014.28 1014.60 1014.88 1015.16 1015.40 1015.60 1015.88 1016.16 1016.48 1016.80 1017.04 1017.24 1017.40 1017.48 1017.60 1017.76 1017.88 1018.00 1018.12 1018.28 1018.48 1018.60 1018.76 1018.96 1019.12 1019.24 1019.36 1019.52 1019.68 1019.84 1020.00 1020.16 1020.28 1020.36 1020.40 1020.52 1020.64 1020.84 1021.00 1021.16 1021.28 1021.36 1021.48 1021.56 1021.60 1021.64 1021.64 1021.68 1021.68 1021.80
1008.24 1008.48 1008.72 1008.96 1009.12 1009.36 1009.76 1010.20 1010.60 1011.00 1011.36 1011.72 1012.12 1012.44 1012.76 1013.08 1013.32 1013.56 1013.84 1014.16 1014.48 1014.80 1015.08 1015.36 1015.60 1015.84 1016.12 1016.40 1016.68 1016.96 1017.12 1017.28 1017.44 1017.56 1017.72 1017.88 1018.00 1018.12 1018.32 1018.52 1018.64 1018.84 1019.00 1019.12 1019.24 1019.32 1019.48 1019.68 1019.84 1020.00 1020.16 1020.32 1020.44 1020.56 1020.64 1020.72 1020.84 1021.00 1021.16 1021.36 1021.48 1021.56 1021.68 1021.68 1021.68 1021.68 1021.72 1021.84 1021.84
1008.28 1008.44 1008.64 1008.88 1009.00 1009.16 1009.48 1010.00 1010.40 1010.84 1011.20 1011.56 1011.84 1012.20 1012.56 1012.92 1013.24 1013.52 1013.80 1014.12 1014.40 1014.64 1014.92 1015.24 1015.56 1015.84 1016.12 1016.36 1016.64 1016.84 1017.04 1017.24 1017.40 1017.56 1017.72 1017.88 1018.00 1018.12 1018.32 1018.52 1018.68 1018.84 1019.00 1019.12 1019.24 1019.36 1019.48 1019.64 1019.80 1020.00 1020.12 1020.32 1020.48 1020.60 1020.72 1020.80 1020.92 1021.04 1021.20 1021.32 1021.48 1021.60 1021.68 1021.72 1021.76 1021.80 1021.84 1021.92 1022.00
1008.24 1008.40 1008.60 1008.84 1009.04 1009.12 1009.36 1009.80 1010.24 1010.68 1011.08 1011.36 1011.64 1011.96 1012.32 1012.68 1013.08 1013.40 1013.72 1014.00 1014.32 1014.56 1014.84 1015.12 1015.48 1015.84 1016.12 1016.40 1016.56 1016.76 1017.00 1017.20 1017.36 1017.52 1017.68 1017.84 1018.00 1018.12 1018.32 1018.52 1018.68 1018.84 1019.00 1019.12 1019.28 1019.40 1019.48 1019.60 1019.76 1019.92 1020.12 1020.28 1020.48 1020.64 1020.76 1020.84 1021.00 1021.12 1021.24 1021.36 1021.48 1021.56 1021.68 1021.76 1021.80 1021.84 1021.92 1022.00 1022.08
1008.20 1008.36 1008.56 1008.84 1009.12 1009.24 1009.36 1009.64 1010.04 1010.56 1011.00 1011.24 1011.52 1011.84 1012.12 1012.52 1012.92 1013.28 1013.56 1013.84 1014.12 1014.48 1014.80 1015.04 1015.36 1015.76 1016.16 1016.44 1016.60 1016.72 1016.92 1017.12 1017.28 1017.44 1017.60 1017.76 1017.92 1018.12 1018.28 1018.48 1018.64 1018.80 1018.96 1019.12 1019.28 1019.44 1019.56 1019.68 1019.80 1019.92 1020.08 1020.28 1020.44 1020.60 1020.76 1020.88 1021.00 1021.16 1021.28 1021.40 1021.52 1021.60 1021.68 1021.76 1021.84 1021.88 1021.96 1022.00 1022.12
1008.12 1008.32 1008.60 1008.92 1009.20 1009.40 1009.52 1009.64 1010.00 1010.44 1010.88 1011.20 1011.48 1011.80 1012.08 1012.40 1012.80 1013.12 1013.40 1013.56 1013.84 1014.24 1014.64 1014.96 1015.28 1015.68 1016.08 1016.40 1016.60 1016.72 1016.84 1017.04 1017.24 1017.36 1017.48 1017.64 1017.84 1018.00 1018.24 1018.44 1018.64 1018.72 1018.84 1019.04 1019.24 1019.40 1019.60 1019.72 1019.84 1020.00 1020.12 1020.28 1020.44 1020.60 1020.76 1020.88 1021.04 1021.20 1021.32 1021.40 1021.52 1021.56 1021.68 1021.76 1021.84 1021.92 1022.00 1022.04 1022.12
1007.96 1008.20 1008.56 1009.00 1009.28 1009.56 1009.68 1009.76 1010.00 1010.36 1010.76 1011.12 1011.48 1011.80 1012.08 1012.36 1012.68 1013.00 1013.28 1013.48 1013.68 1014.00 1014.40 1014.92 1015.28 1015.64 1016.00 1016.28 1016.48 1016.64 1016.76 1016.92 1017.12 1017.24 1017.40 1017.56 1017.76 1018.00 1018.20 1018.44 1018.60 1018.72 1018.84 1019.00 1019.16 1019.40 1019.56 1019.72 1019.88 1020.04 1020.20 1020.36 1020.52 1020.68 1020.80 1020.96 1021.12 1021.24 1021.32 1021.44 1021.52 1021.60 1021.68 1021.80 1021.84 1021.92 1022.00 1022.04 1022.08
1007.68 1008.00 1008.44 1008.88 1009.28 1009.52 1009.68 1009.80 1009.96 1010.20 1010.56 1011.00 1011.36 1011.72 1012.04 1012.32 1012.56 1012.84 1013.16 1013.40 1013.60 1013.84 1014.28 1014.80 1015.24 1015.64 1015.96 1016.16 1016.40 1016.56 1016.72 1016.84 1017.00 1017.12 1017.32 1017.56 1017.72 1017.96 1018.16 1018.40 1018.56 1018.72 1018.88 1019.00 1019.20 1019.40 1019.56 1019.76 1019.92 1020.04 1020.20 1020.40 1020.56 1020.72 1020.88 1021.00 1021.12 1021.28 1021.40 1021.52 1021.56 1021.64 1021.72 1021.80 1021.84 1021.88 1021.96 1022.00 1022.00
1007.48 1007.76 1008.16 1008.60 1009.00 1009.28 1009.52 1009.68 1009.92 1010.12 1010.40 1010.84 1011.20 1011.56 1011.96 1012.28 1012.56 1012.76 1013.00 1013.28 1013.56 1013.84 1014.24 1014.68 1015.12 1015.56 1015.88 1016.12 1016.32 1016.48 1016.68 1016.84 1016.92 1017.08 1017.28 1017.52 1017.72 1017.96 1018.12 1018.36 1018.56 1018.72 1018.92 1019.08 1019.28 1019.40 1019.60 1019.80 1019.92 1020.08 1020.24 1020.40 1020.56 1020.76 1020.92 1021.12 1021.24 1021.36 1021.48 1021.56 1021.64 1021.68 1021.76 1021.80 1021.84 1021.88 1021.92 1021.96 1022.00
1007.20 1007.52 1007.88 1008.28 1008.68 1009.04 1009.36 1009.60 1009.88 1010.16 1010.48 1010.76 1011.08 1011.44 1011.84 1012.20 1012.52 1012.68 1012.88 1013.12 1013.52 1013.88 1014.24 1014.56 1015.00 1015.40 1015.72 1016.00 1016.20 1016.40 1016.60 1016.80 1016.96 1017.12 1017.28 1017.48 1017.76 1017.96 1018.12 1018.32 1018.56 1018.76 1019.00 1019.16 1019.36 1019.52 1019.68 1019.84 1019.96 1020.12 1020.28 1020.44 1020.64 1020.80 1020.96 1021.12 1021.28 1021.40 1021.56 1021.64 1021.72 1021.76 1021.80 1021.84 1021.84 1021.88 1021.92 1021.96 1022.00
1007.00 1007.40 1007.76 1008.12 1008.56 1008.96 1009.28 1009.60 1009.96 1010.28 1010.56 1010.84 1011.12 1011.44 1011.76 1012.12 1012.44 1012.68 1012.96 1013.24 1013.56 1013.84 1014.16 1014.52 1014.92 1015.28 1015.56 1015.80 1016.00 1016.28 1016.56 1016.80 1017.00 1017.12 1017.28 1017.52 1017.80 1018.00 1018.20 1018.36 1018.56 1018.80 1019.04 1019.24 1019.40 1019.56 1019.72 1019.92 1020.08 1020.20 1020.32 1020.52 1020.68 1020.84 1021.00 1021.12 1021.28 1021.44 1021.60 1021.68 1021.80 1021.84 1021.84 1021.84 1021.88 1021.92 1021.96 1021.96 1022.00
1006.88 1007.28 1007.68 1008.12 1008.56 1008.96 1009.28 1009.64 1010.00 1010.32 1010.68 1010.96 1011.20 1011.48 1011.76 1012.08 1012.40 1012.76 1013.08 1013.32 1013.56 1013.84 1014.12 1014.48 1014.84 1015.20 1015.44 1015.72 1015.92 1016.16 1016.44 1016.68 1017.00 1017.20 1017.40 1017.60 1017.84 1018.04 1018.28 1018.44 1018.64 1018.84 1019.08 1019.28 1019.40 1019.56 1019.72 1020.00 1020.16 1020.28 1020.40 1020.56 1020.76 1020.88 1021.00 1021.12 1021.32 1021.48 1021.60 1021.72 1021.84 1021.92 1021.96 1021.96 1022.00 1022.00 1022.00 1022.00 1022.00
1006.84 1007.28 1007.68 1008.12 1008.60 1009.00 1009.32 1009.68 1010.00 1010.32 1010.64 1010.96 1011.24 1011.52 1011.80 1012.04 1012.40 1012.76 1013.12 1013.36 1013.60 1013.84 1014.08 1014.44 1014.84 1015.16 1015.44 1015.72 1015.96 1016.12 1016.36 1016.60 1016.88 1017.20 1017.48 1017.68 1017.88 1018.12 1018.32 1018.52 1018.68 1018.92 1019.12 1019.28 1019.40 1019.56 1019.68 1019.92 1020.12 1020.32 1020.48 1020.64 1020.76 1020.92 1021.04 1021.16 1021.32 1021.44 1021.56 1021.72 1021.84 1022.00 1022.04 1022.08 1022.08 1022.08 1022.04 1022.08 1022.08
1006.84 1007.28 1007.72 1008.16 1008.68 1009.00 1009.32 1009.68 1009.96 1010.28 1010.56 1010.96 1011.28 1011.56 1011.84 1012.12 1012.44 1012.76 1013.08 1013.40 1013.60 1013.84 1014.08 1014.40 1014.84 1015.20 1015.44 1015.72 1016.00 1016.20 1016.40 1016.56 1016.80 1017.08 1017.40 1017.68 1017.96 1018.16 1018.40 1018.56 1018.76 1018.96 1019.12 1019.28 1019.40 1019.60 1019.76 1019.92 1020.12 1020.28 1020.44 1020.60 1020.76 1020.92 1021.08 1021.28 1021.36 1021.48 1021.60 1021.72 1021.84 1022.00 1022.12 1022.16 1022.16 1022.16 1022.12 1022.12 1022.12
1006.92 1007.36 1007.80 1008.28 1008.72 1009.04 1009.32 1009.64 1009.96 1010.28 1010.56 1010.96 1011.28 1011.60 1011.88 1012.20 1012.52 1012.84 1013.08 1013.32 1013.56 1013.76 1014.08 1014.48 1014.88 1015.16 1015.40 1015.68 1016.00 1016.24 1016.44 1016.64 1016.84 1017.04 1017.32 1017.64 1017.92 1018.20 1018.44 1018.64 1018.80 1019.00 1019.12 1019.28 1019.48 1019.64 1019.80 1019.96 1020.12 1020.28 1020.40 1020.60 1020.72 1020.88 1021.12 1021.32 1021.40 1021.56 1021.68 1021.84 1021.96 1022.04 1022.12 1022.20 1022.28 1022.28 1022.28 1022.20 1022.20
1006.96 1007.40 1007.88 1008.40 1008.84 1009.12 1009.36 1009.64 1009.96 1010.28 1010.56 1010.92 1011.20 1011.56 1011.84 1012.24 1012.56 1012.84 1013.08 1013.24 1013.40 1013.76 1014.20 1014.60 1014.92 1015.16 1015.40 1015.68 1015.96 1016.16 1016.40 1016.64 1016.84 1017.12 1017.36 1017.64 1017.88 1018.20 1018.44 1018.64 1018.84 1019.00 1019.12 1019.28 1019.44 1019.64 1019.80 1020.00 1020.12 1020.28 1020.36 1020.56 1020.72 1020.88 1021.08 1021.28 1021.44 1021.60 1021.76 1021.84 1022.00 1022.12 1022.16 1022.28 1022.32 1022.36 1022.36 1022.32 1022.28
1006.84 1007.36 1007.96 1008.48 1008.84 1009.16 1009.40 1009.68 1009.96 1010.20 1010.52 1010.84 1011.12 1011.48 1011.84 1012.24 1012.56 1012.84 1013.00 1013.12 1013.40 1013.84 1014.28 1014.68 1014.96 1015.24 1015.48 1015.72 1015.96 1016.16 1016.36 1016.64 1016.84 1017.12 1017.40 1017.68 1018.00 1018.24 1018.44 1018.64 1018.84 1019.00 1019.12 1019.24 1019.40 1019.60 1019.80 1020.00 1020.12 1020.24 1020.36 1020.52 1020.68 1020.92 1021.12 1021.28 1021.48 1021.68 1021.84 1022.00 1022.08 1022.20 1022.28 1022.36 1022.36 1022.40 1022.40 1022.40 1022.32
1006.68 1007.28 1007.92 1008.40 1008.76 1009.08 1009.36 1009.60 1009.88 1010.16 1010.48 1010.84 1011.12 1011.48 1011.84 1012.16 1012.48 1012.68 1012.80 1013.00 1013.40 1013.92 1014.28 1014.64 1014.92 1015.20 1015.44 1015.64 1015.88 1016.16 1016.40 1016.68 1016.84 1017.12 1017.40 1017.72 1018.00 1018.24 1018.40 1018.60 1018.80 1018.96 1019.12 1019.28 1019.40 1019.56 1019.80 1020.00 1020.12 1020.24 1020.36 1020.56 1020.72 1020.96 1021.12 1021.32 1021.52 1021.68 1021.84 1022.04 1022.16 1022.28 1022.32 1022.40 1022.40 1022.40 1022.40 1022.40 1022.36
1006.56 1007.16 1007.76 1008.28 1008.68 1009.00 1009.24 1009.52 1009.80 1010.12 1010.44 1010.80 1011.12 1011.40 1011.72 1012.08 1012.40 1012.52 1012.64 1013.00 1013.56 1014.00 1014.32 1014.60 1014.88 1015.12 1015.32 1015.56 1015.84 1016.08 1016.40 1016.64 1016.88 1017.12 1017.36 1017.64 1017.96 1018.24 1018.40 1018.60 1018.76 1018.96 1019.12 1019.28 1019.40 1019.60 1019.76 1019.96 1020.12 1020.28 1020.40 1020.56 1020.76 1021.00 1021.20 1021.40 1021.56 1021.76 1021.96 1022.12 1022.24 1022.32 1022.40 1022.40 1022.40 1022.40 1022.40 1022.40 1022.40
1006.44 1007.00 1007.60 1008.16 1008.56 1008.84 1009.12 1009.40 1009.76 1010.08 1010.40 1010.72 1011.08 1011.36 1011.68 1012.00 1012.16 1012.32 1012.60 1013.12 1013.72 1014.16 1014.44 1014.68 1014.84 1015.04 1015.28 1015.56 1015.84 1016.08 1016.32 1016.56 1016.84 1017.12 1017.32 1017.56 1017.92 1018.20 1018.40 1018.60 1018.76 1018.96 1019.12 1019.28 1019.44 1019.60 1019.80 1020.00 1020.12 1020.28 1020.40 1020.56 1020.80 1021.04 1021.28 1021.44 1021.64 1021.84 1022.04 1022.16 1022.28 1022.36 1022.40 1022.40 1022.40 1022.40 1022.44 1022.44 1022.44
1006.36 1006.84 1007.44 1008.00 1008.40 1008.72 1009.00 1009.32 1009.68 1010.00 1010.36 1010.68 1011.00 1011.28 1011.60 1011.88 1012.04 1012.32 1012.84 1013.40 1013.92 1014.24 1014.40 1014.60 1014.76 1015.00 1015.20 1015.48 1015.76 1016.04 1016.28 1016.56 1016.80 1017.04 1017.28 1017.56 1017.84 1018.12 1018.40 1018.64 1018.84 1019.00 1019.12 1019.28 1019.44 1019.64 1019.80 1020.00 1020.12 1020.28 1020.44 1020.68 1020.88 1021.12 1021.36 1021.52 1021.72 1021.92 1022.12 1022.28 1022.32 1022.36 1022.40 1022.40 1022.40 1022.44 1022.48 1022.52 1022.52
1006.24 1006.68 1007.24 1007.76 1008.24 1008.60 1008.96 1009.28 1009.60 1009.96 1010.28 1010.64 1010.96 1011.28 1011.52 1011.80 1012.00 1012.48 1013.08 1013.60 1013.96 1014.12 1014.28 1014.44 1014.56 1014.72 1014.96 1015.28 1015.56 1015.92 1016.24 1016.52 1016.80 1017.04 1017.32 1017.60 1017.84 1018.12 1018.40 1018.64 1018.84 1019.00 1019.12 1019.28 1019.48 1019.64 1019.80 1020.00 1020.12 1020.28 1020.44 1020.68 1020.96 1021.20 1021.40 1021.60 1021.84 1022.00 1022.16 1022.28 1022.32 1022.40 1022.40 1022.44 1022.44 1022.48 1022.52 1022.52 1022.52
1006.08 1006.52 1007.04 1007.60 1008.08 1008.48 1008.84 1009.24 1009.56 1009.96 1010.28 1010.60 1011.00 1011.28 1011.48 1011.64 1012.00 1012.56 1013.12 1013.56 1013.92 1014.16 1014.36 1014.52 1014.64 1014.76 1015.00 1015.28 1015.52 1015.84 1016.16 1016.48 1016.80 1017.08 1017.36 1017.60 1017.84 1018.12 1018.40 1018.68 1018.84 1019.00 1019.12 1019.28 1019.48 1019.64 1019.80 1020.00 1020.12 1020.32 1020.56 1020.80 1021.04 1021.24 1021.44 1021.68 1021.88 1022.08 1022.20 1022.28 1022.40 1022.44 1022.44 1022.48 1022.48 1022.48 1022.52 1022.52 1022.52
1005.96 1006.40 1006.96 1007.56 1008.00 1008.40 1008.76 1009.12 1009.52 1009.88 1010.24 1010.60 1011.00 1011.28 1011.40 1011.60 1012.12 1012.64 1013.12 1013.52 1013.88 1014.20 1014.44 1014.64 1014.80 1015.00 1015.20 1015.44 1015.68 1015.92 1016.16 1016.44 1016.80 1017.12 1017.36 1017.60 1017.84 1018.12 1018.40 1018.68 1018.88 1019.00 1019.12 1019.32 1019.48 1019.64 1019.80 1020.00 1020.12 1020.36 1020.60 1020.84 1021.12 1021.32 1021.56 1021.72 1021.96 1022.12 1022.24 1022.36 1022.48 1022.52 1022.52 1022.52 1022.56 1022.56 1022.52 1022.52 1022.52
1005.76 1006.28 1006.88 1007.44 1007.88 1008.32 1008.68 1009.08 1009.44 1009.84 1010.20 1010.56 1010.88 1011.08 1011.28 1011.76 1012.36 1012.80 1013.12 1013.48 1013.84 1014.16 1014.44 1014.68 1014.84 1015.00 1015.20 1015.40 1015.68 1015.92 1016.16 1016.44 1016.76 1017.08 1017.40 1017.60 1017.80 1018.08 1018.40 1018.68 1018.88 1019.04 1019.16 1019.32 1019.44 1019.60 1019.80 1020.00 1020.16 1020.40 1020.68 1020.92 1021.20 1021.40 1021.64 1021.84 1022.00 1022.20 1022.32 1022.44 1022.56 1022.60 1022.60 1022.64 1022.60 1022.60 1022.56 1022.56 1022.52
1005.64 1006.12 1006.68 1007.28 1007.76 1008.24 1008.60 1008.96 1009.36 1009.76 1010.16 1010.44 1010.64 1010.84 1011.28 1011.92 1012.48 1012.84 1013.16 1013.44 1013.72 1014.04 1014.36 1014.56 1014.80 1014.96 1015.12 1015.36 1015.68 1016.00 1016.28 1016.52 1016.76 1017.08 1017.40 1017.64 1017.84 1018.04 1018.32 1018.64 1018.88 1019.08 1019.20 1019.32 1019.44 1019.60 1019.80 1020.00 1020.20 1020.40 1020.68 1021.00 1021.24 1021.44 1021.68 1021.88 1022.08 1022.28 1022.40 1022.56 1022.68 1022.68 1022.68 1022.72 1022.68 1022.68 1022.68 1022.64 1022.44
1005.44 1005.88 1006.40 1007.00 1007.60 1008.12 1008.48 1008.84 1009.28 1009.68 1010.00 1010.20 1010.44 1010.88 1011.48 1012.08 1012.48 1012.84 1013.08 1013.32 1013.56 1013.88 1014.20 1014.52 1014.76 1015.00 1015.20 1015.48 1015.80 1016.12 1016.48 1016.68 1016.88 1017.12 1017.36 1017.68 1017.84 1018.04 1018.28 1018.60 1018.88 1019.08 1019.20 1019.32 1019.44 1019.60 1019.80 1020.00 1020.24 1020.48 1020.68 1021.00 1021.24 1021.44 1021.68 1021.92 1022.12 1022.32 1022.48 1022.60 1022.68 1022.76 1022.80 1022.84 1022.80 1022.80 1022.80 1022.72 1022.48
1005.28 1005.72 1006.28 1006.84 1007.44 1007.92 1008.32 1008.76 1009.20 1009.52 1009.72 1009.96 1010.44 1011.08 1011.68 1012.08 1012.40 1012.68 1013.00 1013.32 1013.60 1013.88 1014.16 1014.48 1014.80 1015.04 1015.32 1015.56 1015.92 1016.28 1016.60 1016.84 1017.08 1017.28 1017.44 1017.68 1017.92 1018.12 1018.28 1018.56 1018.84 1019.04 1019.20 1019.32 1019.44 1019.60 1019.80 1020.00 1020.24 1020.48 1020.76 1021.04 1021.28 1021.44 1021.68 1021.88 1022.12 1022.40 1022.56 1022.68 1022.76 1022.84 1022.88 1022.92 1022.92 1022.92 1022.88 1022.88 1022.72
1005.16 1005.68 1006.28 1006.84 1007.28 1007.72 1008.12 1008.56 1009.00 1009.24 1009.48 1009.88 1010.56 1011.20 1011.68 1012.04 1012.40 1012.72 1013.08 1013.40 1013.68 1014.00 1014.28 1014.60 1014.92 1015.16 1015.40 1015.68 1016.00 1016.36 1016.68 1017.00 1017.24 1017.40 1017.60 1017.80 1018.00 1018.20 1018.40 1018.60 1018.88 1019.08 1019.20 1019.32 1019.44 1019.64 1019.84 1020.04 1020.28 1020.52 1020.80 1021.12 1021.32 1021.52 1021.68 1021.88 1022.16 1022.44 1022.64 1022.76 1022.84 1022.92 1023.00 1023.00 1023.00 1023.00 1023.00 1022.96 1022.92
Wind_Speed
10 9 9 9 8 8 7 6 7 7 8 9 9 9 9 8 7 6 6 6 6 5 5 5 4 5 5 7 9 9 9 9 9 9 8 8 7 7 6 6 6 6 6 6 5 5 4 4 4 3 2 2 2 1 1 1 1 2 2 1 1 1 2 2 1 0 0 1 0
14 13 12 11 10 9 8 7 7 8 9 10 10 11 10 9 8 8 8 9 8 8 8 7 7 7 8 10 10 10 10 10 10 9 8 8 7 7 6 6 6 6 6 6 6 5 4 4 3 3 2 2 2 2 1 1 1 2 2 1 1 1 2 2 1 1 1 1 0
16 15 14 13 12 11 9 8 9 11 13 13 12 12 11 10 9 9 9 9 10 10 10 9 9 10 11 11 11 10 10 10 10 9 8 7 7 6 6 6 6 6 6 6 5 5 4 4 3 3 3 2 2 2 1 1 1 2 2 1 1 1 1 1 1 1 1 1 1
17 16 15 16 17 15 13 10 12 14 14 13 13 12 11 10 9 9 9 10 11 11 11 10 10 10 11 11 11 11 10 10 10 9 8 7 7 6 6 6 6 6 6 6 6 5 5 4 3 3 3 3 3 2 1 1 1 1 1 1 1 1 1 1 1 1 1 1 1
17 16 16 17 19 18 15 14 15 15 13 12 11 11 11 10 10 9 9 9 10 10 11 12 11 10 10 11 12 11 11 10 10 9 8 7 6 6 6 6 6 6 6 6 6 5 5 4 3 3 3 3 2 2 2 2 2 2 1 1 1 1 1 2 1 1 1 2 1
18 18 17 17 20 18 16 16 16 15 13 11 12 12 11 10 10 10 10 10 10 11 12 12 11 10 10 11 11 11 10 9 8 8 8 7 6 6 6 6 6 6 6 5 5 5 5 4 3 2 2 2 2 2 2 2 2 2 2 1 1 1 2 2 2 2 2 2 3
20 20 21 20 21 19 17 17 15 14 13 12 13 14 13 11 11 12 12 11 11 11 11 10 10 10 11 11 11 10 9 8 8 8 8 7 6 6 6 6 6 6 5 5 5 4 4 4 3 3 2 2 2 2 2 2 3 3 3 2 2 1 2 2 1 2 2 3 3
19 21 23 23 22 20 18 17 15 14 13 12 13 14 14 13 14 14 13 12 11 11 10 9 10 11 11 11 11 10 10 9 8 7 7 7 6 6 6 6 6 5 5 5 5 4 3 3 3 3 2 2 2 2 2 2 3 4 3 3 2 2 2 2 2 2 3 4 4
17 20 22 23 21 19 17 16 16 15 14 13 13 14 15 15 15 15 14 12 12 11 10 9 10 11 12 12 11 10 10 9 8 8 7 7 7 6 6 5 5 5 4 4 5 5 4 3 3 2 2 2 2 2 2 3 4 4 3 2 2 2 2 2 3 3 4 5 5
16 18 20 20 19 17 15 14 14 14 14 13 14 14 15 15 15 14 13 12 12 11 11 11 11 12 12 12 11 10 9 9 9 8 7 7 7 7 6 5 5 5 4 3 4 5 5 4 3 3 2 2 3 3 3 4 4 4 3 2 2 3 3 3 4 4 4 5 6
16 17 18 17 17 16 15 14 13 13 13 13 14 15 15 15 15 14 13 12 12 13 13 13 13 13 12 11 10 10 9 8 8 8 8 7 7 7 6 6 6 5 5 4 3 4 4 4 4 3 3 2 3 3 3 4 4 4 3 2 3 3 4 4 4 4 5 5 6
16 17 17 17 17 17 16 14 13 13 13 14 15 15 15 15 15 14 14 14 14 14 13 13 13 13 12 10 10 9 9 8 8 8 8 8 7 7 6 6 5 5 5 4 4 3 3 4 4 4 3 3 2 3 3 4 4 4 3 3 3 4 4 4 4 4 4 5 5
16 17 17 17 18 18 17 15 13 13 14 16 16 15 14 14 15 15 15 15 14 13 13 13 13 12 11 10 10 9 9 8 8 8 7 7 7 6 6 5 5 5 5 4 4 4 4 4 5 4 4 3 2 2 3 4 4 4 4 4 4 4 5 4 4 4 4 5 5
16 17 17 17 18 18 16 15 13 13 15 17 16 15 15 14 14 15 15 15 15 14 13 12 12 11 10 11 10 10 9 9 8 8 8 7 7 6 6 5 5 5 5 4 4 4 5 5 5 5 5 4 3 2 3 4 4 4 5 5 5 5 4 4 4 4 5 5 5
16 17 17 16 16 16 16 15 13 14 15 17 16 16 15 14 14 14 15 15 15 14 13 12 11 10 10 11 11 10 10 9 9 9 8 7 7 6 6 6 6 6 5 5 4 4 5 5 5 5 5 4 4 3 3 4 5 5 6 6 6 5 5 4 5 5 5 5 5
15 16 16 15 14 14 15 15 13 13 15 15 16 15 15 14 14 14 15 15 14 13 12 13 11 10 10 10 11 11 10 9 9 9 8 8 7 7 6 6 6 6 6 6 5 4 4 4 4 5 5 5 5 5 5 5 6 6 6 6 6 6 5 5 5 5 5 5 4
15 16 16 14 13 13 14 15 13 13 14 15 15 15 14 14 13 14 15 16 14 13 13 13 12 11 10 9 9 10 10 9 9 9 9 8 8 7 7 6 6 6 7 7 6 5 4 4 3 4 5 6 6 6 6 6 6 6 6 6 6 6 5 5 5 4 4 4 3
14 15 15 14 12 12 13 15 14 14 15 15 15 15 14 14 14 14 15 15 15 15 15 14 13 12 11 10 9 9 8 9 9 9 8 8 8 7 7 6 6 6 7 7 7 6 5 4 4 4 5 6 6 6 6 7 7 6 6 6 6 5 5 4 4 4 3 3 2
14 15 15 14 12 12 12 13 15 15 16 16 16 15 15 15 16 15 15 15 16 17 17 15 13 12 12 12 10 9 8 8 9 9 8 8 7 7 7 7 6 6 6 7 6 6 6 6 6 6 6 6 6 6 6 6 6 6 6 6 6 5 4 4 3 3 2 2 1
15 16 16 15 13 12 12 13 14 16 17 17 17 17 16 17 17 16 16 15 15 16 17 16 14 13 12 12 11 9 8 7 9 9 8 8 7 7 7 7 6 6 6 6 6 6 6 6 6 7 7 7 7 7 7 6 6 6 6 5 5 4 4 3 3 2 2 1 1
16 17 17 16 15 13 13 13 14 16 17 18 19 18 18 17 17 17 17 16 16 16 16 16 15 14 13 12 11 10 8 7 8 8 8 8 7 7 7 7 7 6 6 6 6 6 6 6 7 7 7 7 7 7 7 7 6 6 5 5 4 3 3 2 2 2 2 1 2
17 17 17 17 15 14 13 14 15 16 17 18 19 19 18 17 16 16 16 16 16 16 15 15 15 14 14 13 12 10 9 6 7 7 7 7 7 6 6 7 7 7 7 6 6 6 6 6 6 7 7 7 7 7 7 7 6 6 5 4 3 3 2 2 2 1 1 1 2
17 16 16 15 14 14 14 15 15 16 17 17 18 18 18 17 16 15 15 15 15 15 15 14 14 14 14 13 12 11 10 8 7 7 7 6 6 6 6 6 7 7 7 6 6 6 6 6 6 6 7 7 7 7 7 7 6 6 5 4 3 2 2 2 1 1 1 2 2
16 15 14 13 14 14 15 16 16 17 17 17 17 17 17 16 15 15 14 14 14 14 14 12 12 12 12 12 11 11 11 10 9 8 7 7 7 7 6 6 7 7 6 5 6 6 6 6 6 6 6 6 6 6 6 6 6 6 5 4 3 2 2 2 2 2 2 2 2
16 15 14 13 14 15 16 17 17 17 17 17 17 16 16 16 15 15 14 13 13 14 13 12 11 11 11 10 10 11 11 10 10 9 8 7 7 7 6 6 6 5 5 5 9 10 9 8 6 6 5 6 6 6 6 5 6 5 5 4 3 2 2 2 2 2 2 2 2
15 15 15 15 16 16 17 18 18 18 17 17 16 16 16 15 15 14 14 14 13 13 13 12 11 10 10 10 10 10 10 9 10 10 9 8 8 7 6 6 5 5 5 8 11 13 12 11 9 8 6 5 6 6 5 5 5 5 5 4 3 3 2 1 2 2 2 2 3
15 15 15 15 16 17 18 18 17 17 17 17 17 16 16 15 14 14 14 14 13 12 12 11 11 10 10 9 10 10 9 8 9 9 10 9 9 8 7 6 5 5 7 11 13 14 13 13 12 10 8 6 6 6 5 4 4 4 4 3 3 3 2 1 1 2 2 3 3
15 15 15 16 16 17 17 17 17 18 17 17 17 16 16 15 14 14 14 14 13 12 11 9 9 8 8 8 10 10 10 9 9 9 9 9 9 8 7 6 5 6 9 13 14 14 14 13 12 11 10 7 6 5 5 5 4 4 3 3 2 2 2 1 0 0 1 2 2
16 16 16 17 17 17 17 17 18 18 18 18 17 16 16 15 15 14 14 14 13 12 10 8 7 7 7 8 9 10 10 10 9 8 8 9 9 8 8 7 7 8 11 15 15 14 14 13 13 12 11 9 6 5 4 4 4 3 3 2 2 2 1 1 1 0 0 1 2
18 17 18 18 19 18 18 18 18 18 18 16 16 16 16 15 14 14 14 14 13 12 10 9 8 8 9 10 9 9 9 9 9 8 9 9 9 8 8 8 8 9 12 15 15 14 14 13 13 12 11 10 7 5 4 4 3 3 3 2 2 2 2 1 1 1 1 1 2
18 19 19 19 19 19 19 19 18 18 17 16 16 16 16 15 15 14 14 13 12 10 10 10 10 11 11 10 10 9 9 8 9 9 9 10 10 9 8 8 8 10 12 15 15 14 14 13 13 12 11 10 7 5 4 4 4 3 3 3 2 2 2 2 2 2 2 2 3
19 20 20 20 19 19 19 19 18 18 17 17 16 16 15 15 14 13 13 12 11 10 10 10 11 12 11 10 9 9 10 9 9 9 10 10 10 9 8 8 8 10 12 15 15 14 14 13 13 12 11 10 7 6 5 5 4 4 3 3 3 3 2 2 3 3 3 3 3
20 21 21 21 19 19 19 19 18 18 17 17 16 16 15 14 13 12 12 11 11 11 11 12 12 12 12 11 10 10 10 10 10 10 10 10 11 10 9 8 8 9 12 15 15 14 14 13 13 12 12 10 8 6 6 5 4 4 3 3 3 3 3 3 3 3 3 3 2
20 21 22 22 20 19 18 18 17 16 16 16 15 14 14 14 13 13 12 10 10 9 10 11 11 11 11 11 11 10 10 9 10 10 11 11 11 11 9 7 6 9 13 15 15 14 14 13 13 12 12 10 8 6 6 5 4 4 4 3 3 3 3 3 3 3 2 2 2
20 22 22 21 20 19 18 16 15 15 15 14 13 13 13 14 14 14 12 10 9 8 8 8 8 8 9 8 9 9 10 10 10 10 11 11 11 11 10 8 7 10 14 15 15 14 14 13 13 13 12 9 6 6 6 6 5 5 5 5 4 4 3 3 3 2 2 2 2
20 21 21 20 20 19 17 16 16 15 15 14 13 13 12 12 12 12 12 10 9 8 8 7 7 8 8 7 7 8 9 12 11 11 11 11 12 11 10 9 8 11 14 15 15 14 14 13 13 13 11 8 6 5 6 5 5 5 5 5 4 3 3 3 3 3 3 2 1
20 20 19 19 19 19 18 17 16 16 15 14 13 13 12 12 11 10 10 10 9 9 9 8 8 9 9 8 8 7 8 11 12 12 11 11 11 12 11 10 9 11 13 15 15 14 14 13 13 12 10 7 6 5 5 5 4 4 4 4 3 2 2 2 2 3 3 3 2
20 20 20 20 20 19 18 17 17 16 15 14 13 12 12 12 11 10 10 10 10 10 10 9 9 9 9 9 9 9 10 11 12 12 12 11 11 12 12 11 9 10 11 14 15 14 14 14 13 12 10 6 6 5 5 4 4 4 3 3 2 2 2 2 2 3 3 4 4
22 22 22 22 20 19 18 18 17 16 15 14 12 12 12 11 10 10 10 9 9 10 10 9 9 8 8 9 9 9 10 10 11 11 12 11 11 12 12 12 10 9 11 14 14 14 14 14 13 12 10 7 6 5 5 4 4 4 3 2 2 2 2 2 2 2 3 4 6
23 23 23 22 21 20 19 18 16 15 14 14 13 13 12 11 10 9 9 8 8 9 9 9 9 8 9 10 10 10 10 9 9 10 11 11 11 13 13 12 10 10 11 14 14 14 14 14 14 13 10 7 6 5 5 5 4 4 3 2 2 2 2 2 2 2 2 3 5
23 23 23 22 21 20 19 18 16 15 14 14 14 13 11 10 9 8 8 8 8 8 7 7 8 9 9 9 10 10 10 9 9 9 10 10 11 12 12 11 10 10 10 12 14 14 14 14 14 13 11 7 6 5 4 5 5 4 3 2 1 1 1 1 2 2 2 2 3
Wind_Direction
149 147 141 134 131 127 123 119 121 125 130 136 142 150 157 162 155 147 139 131 125 121 121 124 129 133 133 131 126 124 122 120 117 116 117 120 123 128 131 134 133 130 125 119 112 106 101 98 95 92 90 96 104 107 106 105 117 118 117 115 136 149 148 130 114 88 61 59 92
146 142 136 132 130 127 126 127 135 143 149 152 153 157 160 162 158 156 153 150 148 148 149 153 153 151 147 141 134 131 128 126 124 123 124 128 134 138 140 140 137 132 127 121 115 111 107 104 101 98 98 99 96 90 85 92 118 113 103 94 144 157 145 122 125 132 121 86 57
141 137 134 134 134 134 136 142 155 162 164 162 161 162 163 162 161 161 162 162 159 158 158 160 159 155 150 145 140 136 133 131 131 132 134 139 143 145 144 140 133 126 120 116 114 113 112 110 107 108 110 108 99 91 89 104 125 114 105 115 163 154 127 104 119 124 106 76 59
136 136 137 140 141 143 148 158 168 172 171 166 162 162 163 164 166 168 170 167 163 161 160 159 158 155 150 144 140 137 134 134 135 137 141 146 148 148 144 137 127 120 114 112 112 113 114 114 111 111 114 117 112 111 119 146 132 123 123 155 157 132 105 81 87 83 72 62 59
138 139 143 147 149 152 158 169 175 176 173 166 163 163 166 169 172 172 169 165 163 160 158 156 154 151 147 142 138 136 135 136 138 141 144 148 150 147 141 131 123 118 115 113 116 118 119 115 108 110 116 124 122 127 142 154 129 118 117 142 129 105 83 63 56 56 55 49 39
144 145 149 153 155 159 165 176 178 176 171 166 167 169 172 175 172 168 164 160 157 154 152 151 148 145 142 139 136 135 136 138 141 143 146 148 148 142 133 124 120 118 116 116 117 119 119 114 108 108 115 122 120 130 142 144 114 93 75 52 51 57 58 49 46 49 49 41 28
150 152 156 161 163 167 173 179 175 172 170 171 173 174 174 171 164 159 156 152 150 149 149 148 146 144 141 139 137 137 138 141 143 144 146 148 145 139 131 125 121 118 117 117 116 116 113 111 109 109 110 112 111 116 121 116 94 77 59 36 26 37 47 43 40 48 49 41 28
155 158 162 167 171 176 179 178 173 171 172 176 175 172 167 159 154 151 149 147 148 149 149 146 145 143 141 139 139 139 141 142 144 146 147 145 141 136 131 127 122 118 116 115 115 113 110 104 106 109 111 108 104 100 94 91 81 71 57 34 16 21 36 41 38 46 49 42 31
159 163 167 171 177 180 181 176 171 170 171 172 168 162 156 150 148 147 147 147 149 148 146 144 143 141 139 139 140 142 144 146 148 148 148 144 141 138 135 130 125 119 112 106 110 111 109 100 96 98 103 104 99 91 83 81 75 70 60 42 19 14 23 37 37 43 46 44 34
161 165 168 172 176 177 175 169 167 165 163 160 157 153 149 147 147 148 149 148 147 145 145 144 143 140 139 140 143 145 148 150 150 150 149 146 145 144 143 140 133 125 115 103 105 106 105 100 95 89 86 89 92 88 82 79 77 72 63 49 35 27 26 28 32 40 44 44 38
161 162 165 167 169 168 165 160 160 158 155 152 151 149 148 148 149 149 148 146 145 145 146 146 144 142 142 143 146 149 151 152 152 151 149 149 149 150 148 145 137 129 121 112 109 106 105 103 99 92 81 73 82 85 84 82 80 75 68 54 51 45 39 31 34 42 48 47 41
159 159 159 160 162 160 158 157 157 155 152 149 149 150 150 150 150 149 146 144 145 146 147 146 145 145 145 146 149 151 152 152 151 149 149 151 151 151 148 143 134 125 120 117 116 112 110 108 106 99 89 73 74 82 88 88 85 81 74 61 60 56 51 41 41 47 54 53 45
157 157 158 159 159 158 157 157 156 154 152 151 152 152 152 152 150 148 145 145 146 147 147 147 146 145 146 148 150 152 152 152 151 150 150 152 152 150 146 139 128 121 116 117 118 115 113 111 111 109 105 94 84 86 94 97 95 93 87 76 69 65 61 53 51 52 54 51 45
158 158 159 162 162 159 156 156 155 155 154 154 154 154 153 152 150 148 147 147 148 148 147 147 147 148 149 151 152 153 153 152 150 149 150 152 151 149 144 136 125 119 116 119 117 117 116 116 117 117 117 114 105 98 99 104 105 104 100 93 86 80 73 65 60 57 53 48 40
160 161 162 166 166 161 156 155 155 155 156 156 156 155 153 152 151 150 149 150 150 149 148 149 148 149 151 153 153 153 152 151 150 150 151 153 152 149 143 134 124 119 118 120 117 116 118 121 124 125 125 123 118 112 107 107 108 107 106 103 100 94 85 75 68 62 57 51 39
164 163 164 168 170 164 157 155 154 156 157 158 157 155 153 153 153 152 152 152 151 150 149 149 149 149 151 154 154 152 151 150 150 151 152 155 154 150 143 134 127 124 122 121 118 115 117 123 128 129 129 127 123 119 114 110 108 107 106 106 103 99 92 84 76 68 63 57 46
167 164 165 169 172 167 160 155 153 155 157 158 157 155 154 153 154 155 155 154 152 151 151 150 148 149 152 155 155 153 151 152 152 154 156 158 157 153 145 138 133 130 128 125 121 119 118 120 122 124 124 124 123 121 117 112 109 107 106 105 102 99 95 90 83 76 69 61 50
167 165 165 169 174 171 164 156 153 154 156 157 156 155 155 154 155 157 158 156 153 151 151 150 149 151 154 157 158 156 155 155 156 158 159 160 157 152 145 137 134 132 130 128 126 126 126 125 121 118 117 119 119 118 115 111 109 107 106 103 101 98 95 91 87 83 76 65 45
166 164 165 170 176 175 169 160 155 154 156 157 156 156 156 156 157 158 158 157 153 150 149 149 150 153 156 158 159 158 157 156 157 157 157 157 153 147 140 134 131 129 128 127 128 128 129 129 125 120 117 115 113 111 109 107 106 105 103 101 98 95 93 90 90 88 85 76 45
165 165 167 172 176 176 171 164 158 156 156 157 157 157 157 158 158 158 157 157 153 150 148 149 151 154 157 159 158 158 157 156 155 154 154 152 148 143 137 131 127 125 123 122 123 125 127 128 126 123 119 116 113 110 107 104 102 101 99 97 95 93 93 92 90 87 81 68 31
167 167 170 174 176 174 170 163 159 157 157 156 157 157 158 159 159 159 157 154 151 149 148 149 151 154 157 159 157 157 156 153 151 151 150 148 144 140 134 128 124 119 115 114 116 120 122 125 124 122 120 117 115 113 111 107 103 100 97 93 91 90 90 90 84 74 57 37 12
170 170 171 173 172 169 164 159 157 156 156 157 157 157 157 158 159 158 155 151 149 149 150 150 152 156 159 160 158 155 153 149 148 147 146 142 137 131 125 122 118 114 110 109 112 113 114 115 116 117 117 116 116 115 114 112 108 103 98 91 86 80 74 70 65 54 36 15 356
171 170 170 169 165 160 156 154 155 155 156 157 157 157 156 157 157 155 152 149 150 150 151 150 154 157 159 159 155 151 147 144 142 140 136 131 125 120 116 114 113 112 112 113 114 114 111 108 108 110 112 114 115 115 114 113 111 108 102 94 83 70 52 37 34 25 11 352 335
170 168 166 162 156 154 153 153 155 156 157 158 158 157 155 155 153 152 150 150 151 151 150 150 153 156 156 153 150 148 146 143 141 137 130 123 119 116 113 109 109 110 112 115 118 118 117 114 111 110 110 112 114 114 113 113 112 111 108 102 91 72 43 15 7 1 351 337 326
167 163 160 155 152 152 153 154 156 157 158 158 157 156 155 154 152 151 151 152 152 150 148 147 149 151 151 148 148 146 146 144 143 139 133 125 120 116 113 108 108 110 112 112 115 115 115 117 118 118 116 114 113 111 109 108 111 112 111 109 105 92 57 13 354 345 337 329 325
163 159 156 152 152 153 155 157 158 158 157 156 156 155 155 154 152 152 152 153 151 148 145 145 148 150 150 148 147 146 146 146 144 141 137 131 125 119 114 113 113 113 114 115 114 113 113 114 117 118 119 116 113 110 106 104 107 109 110 112 112 107 89 38 353 336 330 329 330
159 156 153 150 153 156 158 158 158 157 156 155 156 156 156 155 154 154 154 153 149 145 143 146 150 151 150 149 148 148 148 147 144 140 137 134 130 125 121 118 117 118 120 121 118 116 114 114 116 116 116 114 112 111 110 109 105 104 106 111 114 114 110 97 3 334 330 332 337
157 154 151 150 155 158 159 158 158 157 157 157 157 156 156 155 155 156 156 152 146 143 144 150 153 153 151 150 152 151 150 147 143 140 136 133 131 129 127 124 123 125 127 126 122 119 117 116 116 115 114 112 111 111 111 111 106 103 103 108 112 114 115 118 107 351 339 338 346
155 152 151 153 158 160 161 160 159 159 159 158 157 156 156 156 158 158 156 149 145 146 150 157 156 154 152 155 155 152 148 145 142 139 135 132 129 128 128 128 127 129 130 129 126 123 122 120 118 116 115 113 111 109 109 109 108 104 102 102 103 104 104 109 110 91 39 12 16
155 153 154 157 161 162 163 162 161 160 159 158 157 156 156 157 159 158 153 147 149 154 159 161 159 158 159 158 154 151 148 146 142 139 136 134 133 132 132 131 131 132 133 132 129 127 125 123 120 118 115 111 108 107 107 108 106 103 99 95 94 97 103 109 106 97 82 63 51
157 156 157 160 163 164 164 163 161 159 158 158 157 157 157 159 161 157 152 149 156 161 163 160 159 160 159 155 152 149 148 146 144 142 140 138 136 135 135 133 132 133 135 136 132 130 127 125 122 118 114 109 106 105 104 103 101 100 100 100 104 108 112 111 104 93 82 71 64
159 158 158 162 163 164 163 162 161 159 159 158 159 159 160 162 160 156 151 153 160 164 164 162 161 158 155 151 149 148 147 146 146 145 143 139 138 136 135 133 133 135 137 139 134 131 128 126 122 118 113 107 104 102 101 99 98 99 103 108 113 115 112 104 94 86 80 77 78
160 159 160 162 163 163 163 161 160 160 159 159 160 160 161 162 156 151 151 157 163 167 167 166 162 159 155 153 150 149 147 147 146 144 140 138 137 135 134 133 134 138 140 139 135 132 130 127 123 118 112 105 102 100 99 98 98 99 102 104 105 102 98 93 88 85 83 86 93
160 160 161 162 162 162 161 160 159 158 158 159 160 161 161 157 151 151 155 164 168 170 170 168 164 160 157 154 151 150 148 146 143 141 139 138 136 135 135 136 138 142 142 139 136 134 131 128 123 117 111 105 103 100 99 98 96 95 93 89 84 81 81 83 83 84 86 90 98
159 159 160 161 161 161 159 157 156 155 155 157 159 160 158 152 151 156 162 167 168 168 168 166 161 156 152 149 147 146 145 143 142 141 140 139 137 136 136 138 140 144 144 140 138 136 133 130 124 117 110 104 101 99 98 96 93 89 84 79 72 67 65 66 66 65 65 69 88
157 157 157 158 160 159 157 155 154 153 154 156 158 157 154 149 154 160 163 163 162 163 163 161 156 151 147 145 144 144 145 145 144 143 142 142 139 138 138 141 142 145 145 141 139 137 135 132 125 118 110 103 99 96 95 93 91 86 80 75 67 60 53 51 46 39 32 25 50
155 153 153 155 157 157 155 154 153 153 154 157 157 154 150 149 157 161 162 159 159 161 162 161 158 156 154 151 149 147 146 146 144 144 145 144 143 141 140 142 143 145 145 144 141 140 138 134 127 120 113 105 102 99 96 93 89 84 79 75 67 55 42 38 34 28 19 3 1
153 152 152 154 155 155 154 153 153 154 156 158 155 150 148 152 159 162 162 159 161 163 163 163 162 160 155 149 144 143 143 144 144 145 146 148 146 144 142 142 143 144 145 146 144 143 140 136 131 125 119 112 110 108 103 98 92 86 82 77 64 41 23 15 23 21 12 357 356
154 152 152 153 154 153 153 153 154 155 156 154 149 148 151 158 162 164 163 162 162 162 162 162 161 155 146 138 135 136 139 143 145 147 148 149 148 146 143 142 144 145 147 148 147 145 143 139 134 129 124 116 116 114 111 105 98 92 85 77 61 32 11 1 10 13 9 360 6
154 153 152 152 152 153 153 154 156 155 153 147 146 151 157 163 163 161 159 158 159 158 157 156 151 145 137 133 133 135 139 143 145 147 147 149 148 146 144 141 144 146 149 150 149 147 144 141 137 132 125 116 117 117 113 109 103 98 90 78 67 43 13 353 357 1 4 360 8
154 153 152 152 153 154 154 154 154 151 147 144 150 155 160 161 157 154 152 152 152 152 150 147 142 138 135 133 134 137 140 142 145 146 146 146 146 146 145 142 145 147 150 152 151 148 145 142 138 134 128 120 119 116 114 110 109 108 107 104 98 79 38 354 347 348 349 349 353